RH
4 4 4 4 4 4 4 3 4 3 3 3 3 3 2 2 2 2 2 2 3 3 3 3 3 3 3 3 2 2 2 2 2 2 2 2 2 2 2 2 2 3 3 3 4 5 5 5 5 6 5 5 6 6 6 6 6 6 7 7 9 10 11 12 13 13 15 16 17 18 19 21 23 24 23 23 23 21 19 19 19 19 18 18 20
4 4 4 4 4 4 4 3 3 3 3 3 3 3 3 2 2 2 2 2 2 3 3 3 3 3 3 3 3 2 3 2 2 2 3 2 2 2 2 2 2 2 3 3 3 4 4 5 5 5 5 5 5 5 5 6 6 5 6 6 6 7 8 9 10 12 14 16 16 16 17 18 20 21 21 21 22 22 21 20 19 19 19 18 17
4 4 4 4 4 4 4 4 3 3 3 3 3 3 3 3 3 2 2 2 2 2 2 3 3 3 3 3 3 3 2 3 2 2 3 2 2 2 2 2 2 2 2 2 3 3 3 4 5 5 5 5 6 6 5 5 5 5 5 5 5 6 6 7 8 9 11 13 14 15 16 16 17 19 20 20 20 21 21 21 20 20 19 19 18
4 4 4 4 4 4 4 4 4 4 3 3 3 3 3 3 3 3 2 2 2 2 2 2 3 3 3 3 3 3 2 3 3 2 2 2 2 2 2 2 2 2 2 2 2 3 3 3 4 4 5 5 5 6 6 5 5 5 5 5 5 5 5 6 6 7 8 10 12 13 14 15 16 17 19 19 19 19 20 20 20 21 21 20 19
4 4 4 4 4 4 4 4 4 4 4 3 3 3 3 3 3 3 3 3 2 2 2 2 2 2 3 3 3 3 3 3 3 3 3 2 2 2 2 2 2 2 2 2 2 2 3 3 3 3 3 4 5 5 6 6 6 5 5 5 5 5 6 5 6 6 6 7 9 10 11 12 13 15 17 18 18 18 19 19 20 20 20 21 21
4 4 4 4 4 4 4 4 4 4 4 4 3 3 3 3 3 3 3 3 3 3 2 2 2 2 2 3 3 3 3 3 3 3 3 3 3 3 3 2 3 3 2 3 3 2 3 2 3 3 3 3 4 4 5 5 5 6 5 6 5 5 6 6 6 6 6 6 7 8 9 10 11 13 15 15 16 16 17 18 19 20 19 20 22
4 4 4 4 4 4 4 4 4 4 4 4 3 3 3 3 3 3 3 3 3 3 3 2 2 2 2 2 2 2 3 3 3 3 3 3 3 3 3 3 3 3 3 3 3 3 3 3 2 2 3 3 3 3 3 4 4 5 5 5 6 5 5 5 5 6 6 6 6 7 7 8 9 10 12 13 13 14 14 16 17 19 20 21 21
5 4 4 4 4 4 4 4 4 4 3 4 3 3 4 3 3 3 3 3 3 3 3 3 3 3 3 3 2 2 2 2 3 3 3 3 3 3 3 3 3 3 3 3 3 3 3 3 3 3 2 3 3 3 3 3 3 4 4 4 5 5 5 5 5 5 5 5 6 6 6 7 8 8 9 11 12 12 13 13 15 16 18 20 21
4 4 4 4 4 4 4 4 4 4 3 4 3 3 3 3 3 3 3 3 3 3 3 3 3 3 3 3 3 3 2 2 2 3 3 3 3 3 4 4 3 3 3 3 3 3 3 3 3 3 3 3 3 3 3 3 3 3 3 3 4 4 4 5 5 5 5 5 5 5 6 6 7 7 8 9 10 11 11 11 12 13 14 16 18
4 5 4 4 4 4 4 4 4 4 4 4 4 3 4 3 3 3 3 3 3 3 3 3 3 4 4 4 3 3 3 3 2 2 2 3 3 3 3 4 4 3 3 3 3 3 3 3 3 3 3 3 3 3 3 3 3 3 3 3 3 3 4 4 4 5 4 5 5 5 5 6 6 7 7 8 9 9 10 10 10 11 12 13 14
5 5 5 5 5 4 4 4 4 4 4 4 4 4 4 4 3 3 3 3 3 2 3 3 3 3 4 4 4 4 3 3 3 3 3 2 2 3 3 3 3 3 4 4 4 4 4 4 4 4 3 3 3 3 3 3 3 3 3 3 3 3 3 3 4 4 4 4 4 4 4 5 5 6 7 8 9 9 9 9 9 9 10 11 12
5 5 5 5 5 5 4 4 4 4 4 4 4 4 4 4 4 4 3 3 3 3 3 3 3 3 3 4 4 4 4 4 4 3 3 3 3 3 3 3 3 3 3 4 4 4 4 4 4 4 4 4 4 4 4 4 4 3 3 3 3 3 3 3 3 3 3 4 4 4 4 4 5 5 6 6 8 8 8 8 8 8 9 9 10
6 5 5 5 5 5 5 5 4 4 4 4 4 4 4 4 4 4 4 3 3 3 3 3 3 3 3 3 4 4 4 4 4 4 4 4 3 3 3 3 3 2 3 3 3 3 4 4 4 4 4 4 4 4 4 4 4 4 4 3 3 3 3 3 3 3 3 3 3 4 4 4 4 4 5 5 6 7 7 7 7 8 8 9 9
6 6 5 5 5 5 5 5 5 4 4 4 4 4 4 4 4 4 4 4 4 4 3 3 3 3 3 3 4 4 4 4 4 4 4 4 4 4 4 3 3 3 3 3 3 3 3 3 4 4 4 4 4 4 4 4 4 4 4 4 4 4 4 4 4 3 4 3 3 3 3 4 4 4 4 5 5 5 6 6 6 7 7 8 9
6 6 6 5 5 5 5 6 5 5 5 4 4 5 4 4 4 4 4 4 4 4 4 3 3 3 3 3 3 4 4 4 4 4 4 4 4 4 5 4 4 4 3 3 3 3 3 3 3 3 3 3 4 4 4 4 4 4 4 4 4 4 4 4 4 4 4 3 3 3 3 3 4 4 4 4 4 4 5 5 5 5 6 6 7
6 6 6 6 6 5 5 6 6 6 5 5 5 5 5 4 4 4 4 4 4 4 4 4 4 3 3 4 3 3 4 4 4 4 4 4 4 4 4 4 5 5 4 4 3 3 3 3 2 2 3 3 3 3 3 3 3 4 4 4 4 4 4 4 4 4 4 4 4 4 3 3 3 4 4 4 4 4 4 4 4 4 4 5 5
6 6 7 6 6 6 5 5 6 6 6 6 5 5 5 5 5 5 4 5 5 5 4 4 4 4 4 4 3 4 4 4 4 4 4 4 5 5 5 4 4 5 5 4 4 4 3 3 3 3 3 3 3 3 3 3 3 3 3 3 3 3 3 3 4 4 3 4 4 4 4 4 4 4 3 4 4 4 4 4 4 4 4 4 4
7 6 6 7 6 6 6 5 5 6 6 6 6 6 6 6 6 6 5 5 5 5 5 4 4 4 4 4 4 4 4 4 4 4 4 4 4 4 5 5 5 5 5 4 4 4 4 4 4 4 3 3 3 3 3 3 3 3 3 3 3 3 3 3 3 3 3 3 3 3 3 4 4 4 4 4 4 4 4 4 4 4 4 4 4
8 7 6 7 6 6 6 6 6 5 6 6 6 6 6 6 6 6 6 6 5 5 5 5 5 5 4 4 4 4 4 4 4 4 4 4 4 4 4 4 5 5 5 5 5 5 4 4 4 4 4 4 4 4 4 4 4 3 3 3 3 3 3 3 3 3 3 3 3 3 3 3 3 3 4 4 4 4 4 4 4 4 4 4 4
9 8 7 6 7 7 7 6 6 5 6 6 6 6 6 6 6 6 7 7 6 5 5 5 5 5 5 4 4 4 4 4 4 4 4 4 4 4 4 4 4 4 4 4 4 5 5 5 5 5 5 5 5 5 4 4 4 4 3 3 3 3 3 3 3 3 3 3 3 3 3 3 3 3 3 3 3 4 4 4 4 5 5 4 4
10 9 8 7 6 7 7 7 7 6 6 6 5 6 6 6 6 6 6 7 7 7 6 5 5 5 5 5 5 5 5 5 4 4 4 4 4 4 4 4 4 4 4 4 4 4 4 4 4 4 4 4 4 4 4 4 4 4 4 4 3 3 3 3 3 3 3 3 3 3 3 3 3 3 3 3 3 3 3 4 4 4 5 5 4
11 10 10 8 7 7 7 7 7 7 6 6 6 5 6 6 6 6 6 6 7 8 8 7 6 5 5 5 5 5 5 5 5 4 4 4 4 4 4 4 4 4 4 4 4 4 4 4 4 4 4 4 4 4 4 4 4 4 4 4 3 3 3 3 4 4 4 4 4 3 3 3 3 3 3 2 3 3 2 3 3 3 4 4 5
14 11 10 10 8 7 7 7 7 7 7 6 7 6 6 6 6 6 6 6 7 8 9 9 8 6 5 5 5 5 5 5 5 5 5 4 4 4 4 4 4 4 4 4 5 4 4 4 4 4 4 4 3 4 4 4 4 4 4 3 3 3 3 4 4 4 4 4 4 4 3 3 3 3 3 3 3 2 2 3 2 3 3 4 4
16 13 11 10 9 8 7 7 7 7 7 7 7 7 7 7 6 6 7 6 7 7 8 10 10 9 7 6 5 5 5 5 5 5 5 5 5 4 4 4 4 4 4 4 4 4 5 5 4 4 4 4 4 4 4 3 4 3 3 3 3 3 4 4 4 4 4 4 4 4 3 3 3 3 3 3 3 3 2 3 3 2 3 3 3
19 16 13 11 10 8 8 7 6 7 7 7 7 6 7 7 7 7 7 7 7 7 8 9 10 10 10 9 7 5 5 5 6 6 5 5 5 5 5 5 5 5 5 5 5 5 5 5 5 5 5 4 4 4 4 4 4 3 3 3 3 3 4 4 4 4 4 4 4 4 3 3 3 3 3 3 3 3 3 3 3 3 3 3 3
22 19 16 13 11 9 8 8 7 7 7 7 7 7 6 7 7 7 7 7 7 8 8 9 10 12 12 11 10 8 6 5 5 6 6 6 5 5 5 5 5 5 5 5 5 5 5 5 5 5 5 5 4 4 4 4 4 4 3 3 3 4 4 4 4 4 4 4 3 3 3 3 3 3 3 3 3 3 3 3 3 3 3 3 3
26 22 18 16 14 11 9 8 8 7 7 7 7 7 6 6 7 7 7 7 8 8 8 9 10 12 14 13 12 11 9 7 6 5 5 6 6 6 5 5 5 5 5 5 5 5 5 5 5 5 5 5 5 5 4 4 4 4 4 3 3 4 4 4 4 4 4 4 3 3 3 3 4 4 3 3 3 3 3 3 3 3 3 3 3
32 26 21 18 16 13 10 9 8 8 8 7 7 7 7 6 6 7 7 7 7 7 8 8 9 10 12 14 14 13 12 10 8 7 6 6 6 6 5 5 5 5 5 5 5 5 5 5 5 5 5 5 5 5 5 4 4 4 4 3 3 4 4 4 4 4 4 4 4 4 4 3 3 4 4 4 4 4 3 3 3 3 3 3 3
35 30 24 19 18 15 12 9 9 8 8 8 8 8 7 6 6 6 7 7 7 7 7 7 8 8 9 12 14 14 13 13 12 10 9 7 6 6 6 6 5 5 5 5 5 5 5 5 5 5 5 5 5 5 5 5 4 4 4 4 4 4 4 4 4 4 4 4 4 4 4 4 4 4 4 4 4 4 4 4 3 3 3 3 3
35 33 27 20 18 16 13 10 9 8 7 7 8 8 8 7 7 6 6 7 7 7 7 7 7 8 8 9 12 14 14 14 13 13 12 10 8 7 6 6 6 6 5 5 5 5 5 5 5 5 5 5 5 5 5 5 5 5 4 4 4 4 4 4 4 4 4 4 4 4 4 4 4 4 4 5 4 4 4 4 3 4 3 3 3
34 33 28 22 19 17 14 11 9 9 8 7 7 8 9 9 8 7 6 7 7 7 7 7 7 8 8 8 9 11 14 16 15 14 14 13 11 9 8 7 7 7 6 6 6 5 5 5 5 5 5 5 5 5 5 5 5 5 5 4 4 4 4 4 4 4 5 5 5 5 4 4 4 4 4 4 4 4 4 4 4 4 4 4 4
34 33 28 23 19 18 16 13 10 8 9 8 7 8 9 9 9 8 7 7 7 7 8 8 8 8 8 8 8 9 12 15 17 17 16 15 14 12 11 9 8 7 7 7 6 6 6 6 5 5 5 5 5 5 5 5 5 5 5 4 4 4 4 5 4 4 5 5 5 5 5 4 5 5 4 4 4 4 4 4 4 4 4 4 4
37 36 32 25 20 18 18 17 13 9 9 8 7 7 8 8 10 10 8 7 7 7 8 8 8 8 9 9 9 9 10 13 16 18 19 18 17 15 14 12 11 9 8 7 7 7 6 6 6 6 5 5 5 5 5 5 5 5 5 5 4 4 5 5 5 5 5 5 5 5 5 5 5 5 5 5 5 4 4 4 4 4 4 4 4
38 39 36 29 24 20 19 20 17 12 9 9 8 7 7 8 9 10 9 9 8 7 8 8 8 8 9 9 9 9 9 11 13 16 19 20 19 18 17 16 15 13 10 9 8 7 7 7 6 6 6 6 6 5 5 6 5 5 5 5 5 5 5 4 5 5 5 5 5 5 5 5 5 5 5 5 5 5 5 5 4 4 4 4 4
37 39 38 34 29 24 21 22 21 16 11 10 8 7 7 8 8 9 10 9 9 8 8 8 8 9 9 9 9 9 9 10 11 13 17 20 20 20 19 18 18 17 15 13 10 9 8 8 7 7 6 6 6 6 6 6 6 6 6 5 5 5 5 5 5 5 4 5 5 5 5 6 5 6 6 6 6 6 5 5 5 5 5 5 4
37 39 39 37 34 29 24 23 24 21 15 11 9 8 7 7 8 9 9 10 9 8 8 8 8 9 9 9 9 9 10 10 10 11 14 18 20 21 20 20 20 20 18 17 15 12 10 9 8 8 7 7 6 6 6 6 6 6 6 6 6 5 5 5 5 5 5 5 5 5 5 5 5 6 6 6 6 6 6 6 5 5 5 5 5
38 39 40 39 37 34 28 25 26 26 21 14 11 9 8 7 7 8 9 10 10 8 8 8 8 8 9 10 10 10 10 10 10 10 11 14 18 21 22 21 22 22 21 20 19 17 15 12 10 9 9 8 7 7 6 6 6 6 6 6 6 6 6 6 5 5 5 5 5 5 5 5 5 6 6 6 6 6 6 6 6 6 6 5 5
39 40 41 40 39 37 32 26 25 27 26 19 14 11 9 7 7 7 8 9 10 9 9 8 8 8 9 9 10 10 10 10 10 10 10 10 14 18 22 23 23 23 23 23 22 21 20 18 15 12 10 9 9 8 8 7 6 6 7 7 7 7 7 7 6 6 6 5 5 5 5 5 5 6 6 6 6 6 6 6 6 6 6 6 6
40 40 40 39 39 37 34 28 23 24 26 23 18 14 11 9 7 7 8 9 10 10 9 8 8 8 8 9 10 10 10 10 10 10 10 10 11 13 18 22 24 24 23 24 24 24 23 21 20 18 15 12 10 9 9 9 8 7 7 7 7 7 7 7 7 7 7 6 6 6 6 6 6 6 6 6 6 6 6 6 6 6 6 6 6
41 40 39 39 38 37 35 31 24 22 25 25 21 16 14 11 8 8 8 8 9 10 10 9 9 8 8 9 9 10 11 12 11 11 11 11 10 11 13 18 22 25 25 24 25 25 25 25 23 22 20 18 15 13 11 10 9 9 8 7 7 7 7 7 8 8 8 8 7 7 7 7 6 6 6 6 6 6 6 6 7 7 7 7 7
42 41 40 39 39 38 38 35 28 23 24 26 24 19 16 13 11 9 8 8 9 10 10 10 10 9 8 9 9 9 10 11 12 12 12 11 11 11 11 13 18 23 27 28 27 26 27 27 27 25 24 23 21 19 16 13 11 10 10 9 8 8 7 7 8 8 8 8 8 8 8 8 7 7 7 7 7 7 6 7 7 7 7 7 7
44 43 42 40 39 39 39 37 32 26 24 26 27 23 19 15 13 11 9 8 8 9 10 11 10 10 9 9 9 9 10 11 12 13 13 13 12 12 12 12 13 17 23 29 31 31 29 29 29 29 28 27 26 25 23 21 18 15 12 11 10 9 8 8 8 8 8 8 8 8 9 9 9 8 8 8 8 7 7 7 7 7 7 7 7
46 45 44 42 39 39 39 39 36 30 25 25 28 27 23 18 16 13 11 9 8 8 9 10 11 10 10 9 9 9 10 10 11 12 13 14 14 13 13 13 12 13 16 22 28 32 34 32 31 30 30 30 29 28 27 27 25 23 20 16 14 12 10 10 9 8 8 8 8 8 9 9 9 9 9 9 8 8 8 8 7 7 7 7 7
47 46 46 43 40 39 40 41 40 35 29 26 28 29 27 23 19 17 14 11 9 9 9 9 10 11 10 10 9 9 10 10 11 11 13 14 15 14 14 13 13 13 13 15 19 26 32 35 35 32 30 30 31 31 30 29 28 28 27 25 22 18 15 13 11 10 9 9 8 8 8 8 9 9 9 9 9 9 9 9 8 8 8 8 8
47 47 46 44 42 40 40 41 42 39 33 28 27 29 29 26 22 20 17 14 11 10 9 9 10 11 11 10 10 9 9 10 10 11 12 13 14 15 16 15 14 13 13 13 14 17 23 30 35 37 35 33 32 32 33 32 30 29 29 29 29 27 24 20 16 14 12 11 10 9 8 8 8 8 9 9 9 9 9 9 9 9 9 9 8
47 47 46 45 42 40 40 42 43 42 37 31 27 28 29 28 24 21 19 17 14 11 10 9 10 10 11 11 10 10 9 9 10 10 11 12 13 14 16 16 16 15 14 14 14 14 16 21 27 34 38 39 37 35 34 35 35 33 31 29 30 31 30 29 26 22 18 15 13 12 11 10 8 8 8 8 8 8 9 9 9 9 9 10 9
47 47 47 46 44 41 40 41 43 43 39 34 29 28 29 29 26 23 21 18 16 13 11 10 10 10 11 11 11 10 10 9 9 10 10 11 12 13 14 16 17 17 16 15 14 14 14 15 18 23 31 37 40 40 39 37 37 37 36 33 31 30 31 31 32 31 29 25 20 17 15 13 12 11 10 9 8 8 8 8 9 9 9 10 10
47 47 47 47 46 43 41 41 43 43 41 36 31 28 28 29 27 25 22 20 18 15 13 11 10 10 10 11 11 11 11 10 9 10 10 10 11 12 13 14 16 17 18 17 16 15 14 14 15 17 21 27 34 40 42 42 40 39 39 38 36 34 32 31 31 32 33 33 31 28 24 21 18 16 14 13 12 11 9 9 8 8 9 9 10
46 47 48 48 46 44 41 41 42 42 40 37 32 28 27 29 28 26 24 22 20 18 15 13 11 10 10 10 11 11 11 10 10 10 10 10 10 11 12 13 14 15 16 18 18 17 16 15 14 15 17 19 23 30 37 42 44 42 41 41 40 39 36 35 33 32 32 32 33 34 33 32 29 26 22 19 18 16 14 13 11 9 9 9 9
45 47 48 48 47 45 42 41 41 41 39 36 32 28 26 28 28 27 25 24 22 20 17 15 12 11 10 10 11 11 12 11 10 10 10 10 10 10 11 11 12 13 15 16 17 18 18 17 16 15 15 16 18 21 27 34 40 44 44 43 43 42 41 39 37 36 34 33 32 33 34 34 35 34 32 29 26 23 21 19 17 15 13 12 10
45 48 49 49 48 46 43 41 41 40 39 36 33 29 27 27 27 26 24 23 23 22 19 17 14 12 11 10 10 11 12 11 11 10 10 9 10 10 10 11 12 12 13 14 15 16 18 18 18 17 15 15 16 17 20 24 30 37 43 45 45 45 45 43 41 39 38 37 35 34 33 33 33 34 34 34 33 31 29 27 26 24 22 19 17
Wind_Speed
39 38 38 37 36 34 32 31 32 33 34 35 36 38 39 40 41 42 44 46 48 51 53 54 55 57 59 60 61 62 63 65 68 70 73 74 76 79 82 85 87 90 93 96 99 102 105 107 109 111 114 116 118 121 123 125 128 131 133 135 137 139 141 142 143 143 144 147 148 149 150 150 149 150 150 150 150 150 149 149 149 149 149 149 149
39 38 37 36 36 36 34 32 31 31 32 33 33 34 35 36 38 39 40 41 43 46 49 51 53 55 57 58 59 60 61 62 64 67 69 72 74 76 78 80 83 86 90 93 96 99 102 105 107 109 112 113 115 117 119 122 125 127 129 131 134 136 137 139 141 141 142 145 146 148 150 150 150 151 151 151 150 151 151 150 150 150 150 150 149
39 37 37 36 35 35 35 34 33 32 31 31 31 32 32 33 34 36 37 38 39 42 44 46 50 53 55 56 57 58 59 60 61 63 66 69 71 73 75 77 79 82 85 89 92 95 98 101 104 107 109 110 112 114 116 118 120 122 124 127 129 130 133 135 138 139 140 142 144 146 148 149 149 150 152 152 151 151 151 151 150 150 151 151 150
40 38 36 35 35 34 34 34 34 33 33 32 31 30 30 31 31 33 34 35 37 39 40 42 46 50 52 54 55 56 57 58 60 61 62 64 67 70 72 74 76 78 81 84 87 91 94 97 100 103 106 108 109 111 113 114 116 117 119 121 123 125 127 130 133 135 136 138 141 144 146 147 147 148 150 152 152 152 151 151 151 151 151 151 151
42 39 37 35 34 33 33 32 32 32 33 33 32 31 30 29 29 30 31 32 34 36 37 38 41 45 48 51 52 54 55 56 58 59 60 61 62 65 67 70 73 75 78 80 83 86 89 93 96 99 101 104 106 108 110 111 112 113 114 115 117 119 122 125 127 129 130 132 135 139 142 143 144 145 147 150 151 151 151 151 151 151 151 150 151
45 41 38 36 34 33 32 31 30 30 30 31 31 30 29 28 28 28 28 29 31 33 34 35 38 40 43 46 49 51 53 54 56 57 58 58 59 60 63 65 69 72 75 77 80 82 85 88 92 94 97 100 102 105 107 109 110 111 111 111 113 115 117 119 121 123 123 124 127 132 136 138 139 140 143 147 149 149 150 150 151 151 151 150 151
48 43 40 37 35 33 32 31 30 29 28 28 29 29 28 27 27 26 26 26 27 30 32 33 35 36 38 41 44 47 49 52 54 55 56 56 57 58 59 62 64 67 70 73 76 78 81 84 87 90 93 96 98 101 103 105 107 108 109 110 112 113 114 115 117 118 119 119 122 125 128 131 132 134 137 141 144 145 146 147 148 150 151 151 151
52 47 43 39 36 34 32 31 31 30 29 28 27 27 27 27 26 25 24 24 24 26 28 30 32 33 35 37 39 41 44 47 50 52 54 55 55 56 57 60 62 64 66 68 71 73 76 79 82 85 88 91 94 96 98 101 103 105 106 109 110 112 112 113 114 115 115 116 118 120 122 124 126 127 130 134 138 140 141 143 145 147 149 150 151
57 53 48 43 39 36 34 33 31 30 29 28 28 27 26 26 25 24 23 23 23 23 24 26 28 30 32 34 36 37 39 41 44 47 50 52 54 55 57 59 60 61 62 64 66 69 71 74 77 80 83 85 88 91 93 96 98 100 103 105 107 109 110 112 113 113 113 114 115 116 118 119 121 122 124 128 132 135 137 139 141 143 145 147 148
60 57 54 49 44 40 37 35 33 32 30 29 28 27 26 25 25 24 23 22 21 21 22 23 24 26 28 31 33 35 36 38 40 43 46 48 50 53 55 57 59 59 59 60 61 64 66 69 72 75 78 80 83 86 88 91 93 95 98 100 103 105 107 109 111 112 112 112 113 113 114 115 117 118 120 123 127 131 133 135 137 138 141 143 145
61 59 57 54 50 45 40 37 35 33 32 30 29 28 26 25 24 23 23 22 20 19 19 20 21 23 24 27 30 33 34 36 38 40 43 45 47 50 52 55 56 57 57 58 59 61 63 66 68 71 74 76 79 82 84 86 88 91 93 96 98 101 103 105 108 110 110 111 111 111 111 112 113 115 116 119 123 127 130 131 132 134 136 139 141
62 60 58 56 54 51 46 41 37 34 32 31 30 29 27 26 24 23 22 22 20 19 18 18 19 20 22 24 26 29 32 34 35 37 40 42 45 47 50 52 54 55 56 57 59 60 62 64 66 68 70 73 75 78 80 82 84 86 88 91 94 96 98 101 103 105 107 108 109 110 110 111 112 113 114 116 120 124 125 126 128 130 132 134 136
64 61 58 57 55 53 50 47 42 37 33 31 30 29 28 27 25 23 22 21 21 20 19 18 17 18 19 21 24 26 29 31 33 35 37 39 41 44 47 50 52 54 55 56 58 59 61 63 65 67 68 70 72 74 76 78 80 82 84 86 88 90 93 95 97 100 102 104 105 107 108 109 111 112 113 114 117 120 121 122 123 125 127 129 131
67 63 59 57 55 54 52 50 46 42 38 34 32 30 29 28 27 25 23 21 20 20 19 18 18 17 17 18 20 23 26 29 31 33 35 36 38 40 43 46 49 51 53 55 57 59 61 63 65 66 68 69 70 71 73 74 76 77 79 81 83 85 87 89 92 94 97 99 101 103 105 107 108 110 112 113 115 116 117 118 119 121 123 124 127
70 66 61 58 56 54 52 51 49 46 42 38 35 33 31 29 29 27 25 23 22 20 19 19 18 18 17 18 18 20 22 25 28 30 33 34 36 38 39 42 44 47 50 53 55 58 60 62 64 65 67 68 69 70 71 72 73 74 75 77 79 81 83 85 87 90 92 94 96 98 100 102 104 107 109 110 112 114 115 115 116 117 119 121 122
72 69 64 60 57 55 53 51 49 48 45 42 38 35 33 31 30 28 27 26 24 22 21 20 19 18 18 18 18 18 20 22 24 27 29 32 34 36 38 39 41 43 46 49 52 55 57 59 62 63 64 65 67 68 69 70 71 72 73 75 77 79 81 83 85 86 88 89 90 92 95 97 99 102 104 106 108 110 111 112 113 115 116 117 118
74 71 68 63 59 56 53 52 49 48 47 45 41 38 35 33 31 30 28 27 25 24 23 21 20 19 18 18 18 18 19 20 22 23 26 28 30 33 35 37 39 41 43 45 48 50 52 55 56 58 59 61 63 64 66 67 69 70 72 73 75 77 79 81 82 83 84 85 86 88 90 92 94 96 98 100 103 105 106 108 110 112 113 114 115
76 72 70 67 62 57 54 52 50 48 46 45 43 41 38 35 32 31 29 27 26 25 24 23 22 21 20 19 19 18 18 19 20 21 23 25 27 29 31 34 36 38 40 42 44 46 48 50 52 53 54 56 57 59 61 63 66 69 70 72 74 75 77 78 79 80 80 81 82 84 86 88 89 91 93 95 97 99 101 104 107 109 111 111 112
78 74 71 68 65 61 57 53 51 49 47 45 43 41 39 36 33 32 30 29 27 25 24 23 23 22 21 21 20 20 19 19 19 20 21 23 24 26 29 31 33 35 37 39 41 43 45 47 49 50 51 52 53 56 58 60 63 66 68 69 70 72 74 75 75 76 77 78 80 81 82 84 85 86 88 91 93 95 97 100 103 105 106 108 110
80 76 72 69 66 63 60 56 53 50 48 45 43 41 40 37 34 32 30 29 28 26 24 23 22 22 22 21 21 21 21 20 20 19 20 21 22 24 26 28 30 32 34 36 38 40 42 44 46 47 48 49 51 54 56 58 61 63 64 65 67 69 70 70 70 71 73 75 77 78 79 81 82 83 85 87 89 92 94 97 99 101 103 105 108
82 78 74 71 67 64 61 58 55 52 50 48 45 43 41 39 36 33 31 29 28 27 26 24 23 22 22 22 21 21 21 21 21 21 20 20 21 22 23 25 27 29 31 33 35 37 39 41 42 44 46 47 50 52 54 57 59 60 61 63 65 66 66 65 66 67 68 71 73 75 77 78 80 81 82 83 85 87 90 93 95 98 100 102 104
85 80 76 73 69 65 62 59 56 53 51 50 48 46 43 41 38 36 33 31 28 27 27 26 25 23 22 21 21 21 21 21 22 22 22 21 21 21 22 23 24 26 27 30 32 34 36 38 39 41 43 46 48 50 52 54 56 58 59 61 62 62 61 61 62 63 65 68 70 71 73 75 77 78 80 81 82 84 86 88 90 93 95 97 99
88 82 78 74 71 67 64 60 57 54 51 50 48 47 45 43 41 39 37 34 31 29 28 27 26 25 23 21 21 21 21 21 21 22 22 22 22 22 23 23 23 24 25 26 28 30 32 34 36 38 40 42 45 48 50 52 54 56 57 58 59 58 57 58 59 61 64 66 68 69 71 73 74 75 77 78 79 81 82 83 85 87 89 92 94
90 85 80 75 72 69 65 62 59 55 52 50 48 46 45 44 43 41 39 38 35 32 29 28 27 26 25 23 22 21 21 21 21 21 22 22 22 23 23 23 23 24 24 25 26 27 29 31 33 34 36 39 41 44 46 49 51 53 54 54 55 54 54 55 57 60 62 64 66 67 69 70 71 73 74 75 77 78 79 80 81 83 85 87 90
90 87 82 77 73 69 66 63 60 57 53 50 48 46 43 42 42 41 40 38 37 35 32 30 28 27 26 25 24 23 21 21 20 20 21 22 22 22 23 23 24 24 24 24 25 26 27 28 30 32 34 36 38 40 42 44 47 48 49 50 51 51 51 53 55 57 60 62 63 65 66 67 68 69 70 71 73 75 76 77 79 80 81 83 85
91 88 84 80 75 71 67 63 60 59 55 52 49 47 44 41 40 40 39 37 37 36 35 33 31 28 27 26 26 24 23 22 20 19 19 20 21 22 22 23 23 23 24 24 25 25 26 27 28 30 32 34 36 38 39 41 42 44 45 45 46 47 48 49 52 55 58 60 61 61 62 62 63 64 66 68 70 72 73 74 76 77 79 80 82
92 89 85 82 77 73 69 65 61 58 57 54 50 48 46 43 40 38 38 37 35 34 34 33 32 30 28 26 25 25 24 23 21 20 19 19 19 19 20 21 22 22 23 23 24 25 26 26 27 28 30 32 34 36 37 39 40 41 41 42 43 44 45 46 49 52 55 57 57 58 57 58 59 60 62 64 66 68 69 71 73 75 76 77 79
93 90 86 83 79 75 72 68 63 58 57 56 53 50 47 45 42 40 38 36 35 33 31 31 30 30 28 26 25 24 23 23 22 21 20 20 19 19 19 19 20 20 21 22 23 24 25 26 27 27 28 30 31 33 35 37 38 39 39 39 40 41 43 44 46 49 52 53 54 54 55 56 56 57 58 60 62 64 66 68 70 72 73 75 76
92 90 87 83 80 76 73 70 66 60 56 55 54 52 49 47 45 42 39 37 36 34 32 30 29 29 28 27 26 25 23 23 22 22 22 21 20 20 20 19 19 19 19 20 21 23 24 25 26 27 27 28 29 31 32 34 35 37 37 38 38 39 40 42 44 46 48 49 50 51 52 53 53 52 53 56 59 61 63 65 67 69 70 72 74
91 89 87 83 81 77 73 70 68 63 58 54 53 52 51 49 46 44 42 40 38 36 34 32 31 29 29 28 27 26 25 23 22 22 22 21 21 21 20 20 20 19 19 19 20 21 22 24 25 26 27 28 28 29 30 32 33 34 35 36 37 38 39 40 41 43 45 46 47 49 50 50 49 49 51 54 57 59 60 62 63 65 66 68 70
90 88 86 83 80 78 74 70 68 65 60 55 52 51 50 49 48 46 44 41 39 38 36 34 32 31 30 28 27 27 26 25 24 23 22 21 21 20 20 20 20 20 20 20 20 21 22 23 24 25 26 27 28 29 29 30 31 32 33 34 35 36 37 38 39 41 42 43 45 47 48 47 47 48 50 52 55 56 57 58 60 61 63 64 66
89 87 85 82 79 77 75 72 69 66 62 57 53 50 48 48 47 47 46 43 41 39 37 35 33 32 30 29 28 27 26 25 25 24 23 22 21 20 20 20 20 20 20 20 20 20 21 22 23 23 24 26 27 28 29 29 30 30 31 33 34 35 36 37 38 39 39 41 43 45 45 45 46 47 48 50 52 53 54 55 57 58 60 62 64
89 86 85 82 79 77 75 73 71 68 64 59 55 51 49 47 45 45 45 44 42 40 38 36 34 32 30 29 28 27 26 25 24 24 23 23 23 21 20 19 19 19 19 20 20 20 20 21 22 22 23 24 25 26 27 28 29 30 30 31 32 33 35 36 37 37 38 39 41 42 42 42 44 44 45 47 49 51 53 54 54 55 57 60 62
87 85 84 82 80 77 75 74 72 70 67 63 57 53 50 48 46 44 43 43 43 41 39 37 35 33 31 30 28 27 26 25 24 23 23 23 23 22 21 20 19 19 19 19 20 20 20 20 21 21 22 22 23 24 25 26 27 28 29 30 30 31 33 34 35 36 37 38 39 39 39 40 41 42 43 45 46 48 50 51 52 53 55 57 58
86 84 82 82 80 78 75 74 72 70 68 65 60 55 51 48 46 45 43 42 41 41 40 39 37 35 33 31 30 28 27 26 25 23 22 22 22 22 21 20 20 19 19 19 19 19 20 20 20 21 21 22 22 23 24 24 26 27 27 28 29 30 30 31 33 34 35 36 37 37 38 39 40 41 42 43 43 45 47 49 50 51 52 54 55
85 83 82 81 80 78 76 74 72 71 69 67 63 58 53 50 47 46 44 42 41 40 39 38 37 35 33 32 31 30 28 27 26 24 23 22 22 22 21 20 20 20 19 19 19 19 19 20 20 21 21 21 22 22 23 23 24 25 26 26 27 28 29 30 30 31 33 34 35 36 37 37 38 39 40 41 42 43 45 46 48 49 50 51 53
85 83 81 80 79 78 75 73 72 70 69 68 65 61 57 52 49 47 45 43 42 40 39 38 36 35 32 31 30 30 29 28 27 25 24 23 22 22 22 21 20 20 20 20 19 19 19 19 20 20 21 21 21 21 22 22 23 23 24 25 25 26 27 28 28 29 30 31 32 33 34 35 36 37 38 39 40 41 43 44 45 46 48 50 51
84 82 81 79 78 77 75 72 70 68 68 67 66 63 59 55 51 48 47 45 43 42 40 39 37 36 34 32 30 29 28 28 27 27 25 24 23 23 22 22 21 20 20 20 20 20 20 20 20 20 20 21 21 21 21 21 22 22 23 23 24 24 25 26 27 27 28 29 30 31 32 33 33 34 36 37 38 39 40 41 42 44 46 47 49
84 82 80 78 77 76 75 72 70 67 66 65 64 63 61 57 53 49 47 45 44 43 42 40 38 37 35 34 32 30 29 28 28 27 26 25 24 23 23 23 22 21 20 20 20 20 20 20 20 20 20 20 20 20 20 20 20 21 22 23 23 24 24 25 25 26 27 27 28 29 30 30 31 32 33 34 36 37 38 39 40 42 43 45 46
83 81 79 78 76 76 74 72 70 67 65 64 63 62 61 58 55 51 48 46 44 43 42 41 40 38 36 35 33 31 30 28 28 28 27 26 25 24 23 24 24 23 22 21 20 20 20 20 20 20 20 20 20 20 21 20 20 20 20 21 22 23 24 24 25 25 26 27 27 28 28 29 30 30 31 32 33 34 36 37 39 40 41 42 43
83 81 80 78 76 75 74 72 70 68 65 64 62 61 60 59 56 53 50 47 45 44 43 41 40 39 38 36 34 32 31 29 28 28 28 28 26 25 24 23 23 24 24 23 22 21 21 20 20 21 21 21 21 21 21 21 21 20 20 20 21 22 23 24 25 25 26 26 27 27 28 28 29 29 30 30 31 32 34 35 37 38 39 40 41
82 81 80 78 76 75 74 72 70 68 66 64 62 61 60 58 57 55 52 49 47 45 43 42 41 40 38 37 36 34 32 30 28 28 28 28 28 27 26 25 24 23 23 24 23 23 22 21 21 21 20 21 21 21 21 21 21 21 21 21 21 21 21 22 23 24 25 26 27 27 27 28 28 28 29 29 30 31 32 33 35 36 38 39 39
81 80 79 78 77 75 74 73 71 69 67 64 62 61 60 59 57 56 53 51 48 46 45 43 42 40 39 38 37 35 34 32 30 28 27 27 28 28 28 27 25 24 23 24 24 24 23 23 22 22 21 20 20 21 22 22 22 22 22 22 22 22 21 21 22 23 24 25 26 27 27 28 28 28 28 28 29 30 31 31 33 34 36 37 38
80 79 78 78 77 75 74 73 71 70 68 65 63 61 60 59 58 56 55 53 50 48 46 44 43 41 40 39 37 36 35 34 32 30 28 27 27 28 28 29 28 26 25 24 24 24 24 24 23 23 22 22 21 21 21 22 22 23 23 23 23 23 23 22 22 22 23 23 25 26 27 28 28 28 28 28 29 29 30 30 31 32 33 35 36
79 78 77 77 76 75 74 73 71 70 68 66 64 61 60 58 57 56 55 53 51 49 47 46 44 43 41 40 38 37 35 34 33 32 30 29 27 27 28 29 29 29 28 26 25 24 24 25 24 24 23 23 22 22 21 22 22 22 23 23 24 24 24 24 24 23 23 23 23 24 25 26 27 28 29 29 29 29 29 30 30 31 31 32 33
78 77 76 76 75 75 74 72 71 70 68 67 65 62 60 58 57 56 55 53 52 50 48 46 45 44 42 41 39 38 36 35 34 33 32 30 29 27 27 27 28 29 30 29 28 26 25 25 25 25 25 24 23 23 22 22 22 23 23 23 24 24 25 25 25 25 25 24 24 24 24 25 25 26 27 28 28 28 29 29 29 30 30 31 32
77 76 75 75 75 74 73 72 71 70 69 67 66 63 61 59 57 56 55 54 52 51 49 47 46 45 43 42 41 39 38 36 35 33 32 32 31 29 28 27 27 28 29 30 30 29 28 27 26 26 26 26 25 24 23 23 23 23 23 23 23 24 24 25 26 26 26 26 26 25 25 24 24 24 25 25 26 27 27 28 28 29 29 29 30
76 75 75 75 75 74 74 72 71 70 68 67 66 64 62 60 58 57 56 55 53 52 50 48 46 45 43 43 42 40 39 37 36 34 33 32 32 31 30 28 28 27 28 29 31 31 31 29 28 27 27 27 27 26 25 24 24 23 24 24 24 24 24 25 25 26 26 27 27 27 26 26 25 25 24 24 24 25 25 26 27 28 28 29 29
76 75 74 74 74 74 74 72 71 69 68 67 66 64 62 60 58 57 56 55 54 53 51 49 47 45 44 42 41 41 40 39 38 36 34 33 32 32 31 30 29 28 28 28 29 31 32 32 31 30 29 28 28 28 28 27 26 25 24 24 24 24 24 24 25 25 26 26 27 27 27 27 27 27 27 26 25 25 25 25 26 26 27 28 29
75 75 74 74 74 74 73 72 71 70 68 67 66 65 63 60 58 56 55 55 54 53 52 50 48 46 45 43 42 41 40 39 39 37 36 34 33 33 32 32 31 30 29 28 28 29 31 32 32 32 31 30 30 29 29 29 28 28 26 25 24 24 24 25 25 25 25 26 26 27 27 28 28 28 28 28 28 27 27 26 26 26 26 27 28
75 74 74 74 73 74 73 72 71 70 69 68 67 66 64 61 58 56 55 54 54 53 53 51 50 48 46 44 43 42 41 40 39 38 37 36 34 33 33 32 32 32 31 30 29 29 30 31 32 33 33 32 32 31 31 31 30 30 29 28 26 25 25 25 25 25 26 26 26 27 27 28 28 28 29 29 29 29 29 28 28 27 27 28 28
Wind_Direction
335 332 330 326 323 319 314 309 302 296 290 285 281 278 275 273 270 266 262 259 256 255 254 254 253 252 252 251 250 248 246 243 241 241 240 239 239 238 237 236 235 235 235 235 235 235 236 236 237 237 237 238 238 238 239 239 239 239 239 238 238 238 238 239 239 238 238 238 238 238 238 238 238 238 239 239 239 240 240 240 240 240 241 241 240
338 335 333 330 327 323 319 316 310 303 297 292 287 283 279 275 273 269 265 261 257 255 253 252 252 251 250 250 250 249 248 246 243 241 240 239 239 238 237 237 236 235 235 234 234 234 235 236 236 237 238 238 238 238 238 239 239 239 239 239 239 239 238 238 238 238 238 238 238 238 239 239 238 238 239 239 239 240 240 240 240 240 241 241 241
342 339 336 333 330 327 324 321 317 312 306 300 295 289 284 280 275 272 268 264 259 256 253 251 250 250 250 249 249 248 248 247 245 243 241 239 239 238 238 237 236 236 235 235 234 235 235 235 236 237 238 238 239 239 239 239 239 240 240 240 240 240 239 239 239 238 237 238 238 239 239 239 239 239 240 240 240 240 240 240 240 240 241 241 242
347 343 339 337 334 331 329 326 322 319 314 310 304 298 292 286 280 275 271 267 263 259 255 252 249 249 249 249 249 248 248 247 246 245 243 241 240 239 238 238 237 236 236 235 235 235 235 235 235 236 237 238 239 239 240 240 240 240 240 241 241 241 241 240 240 239 238 238 238 239 239 239 239 239 240 240 241 240 240 241 241 241 241 241 242
350 347 344 340 337 335 332 330 326 323 319 316 312 307 300 293 287 280 275 271 266 262 258 254 251 249 249 249 248 248 248 247 247 247 245 244 242 240 240 239 238 237 236 236 235 235 235 235 236 236 236 237 238 239 240 241 241 242 241 241 241 242 242 242 242 241 240 239 239 239 239 239 239 239 240 241 241 241 241 241 241 242 241 241 242
353 350 348 345 341 339 337 334 331 327 323 319 315 312 307 301 294 288 281 275 270 266 262 257 254 252 250 249 248 248 247 247 247 247 247 246 244 243 241 240 239 238 238 237 236 235 235 235 235 236 236 237 237 238 238 239 240 241 242 242 242 242 242 242 242 242 241 240 240 240 240 240 240 240 240 241 241 242 242 242 242 242 242 242 242
357 354 351 349 346 343 341 339 337 333 328 324 320 316 311 306 300 295 289 283 275 269 265 261 257 255 253 251 249 248 247 247 247 247 247 246 246 245 243 242 241 240 239 238 238 237 237 236 236 236 236 236 237 237 238 238 239 240 240 241 242 242 242 242 242 242 242 241 240 240 241 241 240 240 240 241 242 242 242 242 242 242 243 243 242
0 358 355 352 349 347 345 343 341 339 336 332 327 323 317 312 306 300 294 289 283 276 270 265 261 258 255 253 251 249 247 247 247 247 247 247 246 246 245 244 242 241 240 239 239 238 238 238 238 238 238 237 237 237 238 238 238 239 239 240 241 242 242 242 242 242 241 241 240 240 240 240 240 240 240 241 242 242 242 242 242 242 242 242 243
1 0 359 356 354 352 349 347 345 343 341 339 335 330 325 319 313 306 299 293 288 282 276 270 265 261 257 255 253 250 248 247 247 247 247 246 246 246 246 246 245 243 241 240 239 239 239 239 239 239 239 239 239 239 239 238 239 239 239 239 240 241 241 242 243 243 242 242 241 240 240 240 240 239 239 240 241 241 241 241 241 242 242 242 242
1 0 360 359 357 355 353 351 349 347 345 343 340 337 332 327 320 313 306 298 291 286 280 275 269 263 259 256 255 252 248 245 244 244 244 244 245 245 245 246 246 246 245 243 242 241 240 240 240 239 239 239 239 240 239 239 239 239 239 239 240 240 241 241 242 243 243 243 242 242 241 240 240 240 239 239 240 240 240 240 240 241 241 242 242
2 0 359 359 358 357 355 354 353 351 348 346 344 341 338 334 328 321 314 307 298 290 284 278 272 266 260 257 256 255 252 248 244 242 241 242 242 242 243 244 245 245 245 245 244 243 242 241 240 240 240 239 239 239 239 239 239 239 239 239 239 239 240 240 241 242 242 243 243 243 243 242 241 240 239 239 239 240 240 240 240 240 240 241 241
2 1 0 359 358 357 356 355 354 353 351 349 347 345 342 339 335 330 323 316 308 299 290 283 277 270 263 257 254 253 253 252 249 245 243 242 241 240 241 242 242 243 243 243 243 243 243 243 242 241 240 240 240 240 240 239 239 239 239 239 239 239 239 240 240 241 241 242 242 243 243 243 242 242 241 240 240 240 240 240 240 240 240 240 241
2 2 1 360 358 357 356 355 354 353 353 352 350 348 346 343 340 336 331 324 317 309 301 291 283 276 269 263 257 253 251 251 250 248 246 244 243 242 241 241 241 241 241 241 240 241 241 242 242 242 242 241 241 240 240 240 240 240 240 240 240 240 240 240 240 240 240 241 241 241 242 242 242 242 242 241 240 240 241 240 240 241 240 240 240
2 2 2 1 359 358 357 355 354 353 352 352 352 351 349 347 343 341 337 332 326 319 311 302 292 282 274 267 262 258 254 251 250 249 247 246 245 244 243 243 243 242 241 241 240 240 240 240 240 241 241 241 242 242 241 241 241 241 241 241 241 241 241 240 240 240 240 240 240 240 240 240 241 241 241 241 241 241 241 241 240 240 240 240 240
1 1 1 1 1 359 357 356 354 353 352 351 351 351 351 349 347 344 341 337 333 326 319 312 303 293 283 273 266 261 258 256 254 251 249 248 246 245 244 243 243 243 243 242 241 241 240 240 240 241 241 242 242 242 242 242 242 242 242 242 242 242 242 241 241 240 240 239 239 239 239 239 239 240 240 240 241 241 241 241 241 241 240 240 240
1 0 360 0 1 360 358 357 355 354 352 351 350 350 350 350 349 346 343 340 336 332 326 320 312 304 294 285 275 267 261 258 256 255 253 251 250 248 246 244 243 243 243 243 243 243 242 242 242 242 242 242 243 243 243 244 244 243 243 243 243 242 242 242 241 241 240 240 239 239 239 239 239 239 239 240 240 240 240 241 241 241 241 241 240
2 0 359 359 360 0 359 358 356 355 353 351 350 349 349 350 349 347 345 342 338 334 330 325 319 312 305 297 288 279 270 263 259 257 255 254 252 251 250 248 247 245 244 244 244 245 245 245 245 245 245 244 244 244 245 245 245 245 244 244 243 243 243 243 243 242 242 241 241 240 240 239 239 238 238 239 239 240 240 240 241 241 241 241 241
2 1 359 358 358 359 359 359 357 356 354 352 350 349 348 348 348 347 345 343 340 335 331 327 323 318 313 307 298 290 282 274 267 262 258 255 253 252 251 250 249 249 248 246 246 246 246 247 247 247 246 246 246 245 245 245 245 245 245 244 244 244 244 244 244 244 244 243 242 241 241 240 239 239 238 238 238 238 238 239 239 240 240 240 240
3 1 0 358 357 356 357 358 358 357 355 353 352 349 348 347 346 346 345 343 341 337 333 329 325 321 317 313 307 300 292 284 277 271 267 262 258 255 253 251 250 249 248 248 248 247 247 247 248 248 247 246 246 246 245 245 245 245 245 245 245 245 245 245 245 245 245 245 244 243 242 242 241 240 239 238 238 237 237 237 237 238 239 239 240
3 2 0 359 357 356 355 356 357 357 355 354 352 351 348 346 345 345 345 343 341 339 336 332 328 324 320 316 312 307 301 293 286 280 274 270 267 263 259 256 253 251 249 248 247 247 246 247 247 247 247 246 245 245 245 245 246 246 246 246 246 246 246 246 246 245 245 245 245 244 244 243 242 241 240 239 238 237 237 236 236 236 237 237 238
3 3 1 359 358 356 355 354 355 356 356 354 353 351 349 347 346 345 343 343 342 340 338 335 331 327 323 319 314 310 305 300 294 288 282 277 273 270 267 264 260 257 254 252 250 248 247 246 246 245 245 244 244 244 244 244 245 246 246 246 247 247 247 247 247 246 246 245 245 244 244 243 243 242 241 240 239 238 237 236 236 235 235 235 236
2 3 2 0 358 357 355 354 354 354 355 355 353 351 350 348 347 345 343 343 342 342 340 337 333 329 325 322 318 314 309 305 300 294 289 284 280 277 274 271 268 265 262 259 257 254 252 250 248 246 245 244 243 243 243 243 244 244 245 245 246 246 247 247 247 246 246 245 245 244 243 242 242 242 242 241 240 240 239 237 236 236 236 236 236
1 2 2 2 359 357 355 354 353 353 354 355 354 352 350 348 347 345 344 342 342 342 341 339 336 331 328 325 322 318 313 309 304 299 294 289 286 282 279 276 273 271 268 265 263 260 258 255 253 251 249 248 246 245 244 244 244 244 244 245 246 246 245 245 245 245 244 244 244 243 243 242 241 241 240 240 241 240 240 239 238 237 236 236 236
0 0 1 2 1 358 356 354 353 352 353 354 354 354 352 349 346 345 344 342 341 340 340 339 337 334 331 328 325 321 317 312 308 304 299 294 289 285 282 279 277 275 272 270 267 264 262 259 257 255 253 252 250 249 248 247 246 246 245 245 245 245 244 243 243 243 243 243 243 243 243 243 242 241 240 240 240 240 240 240 239 238 237 236 235
0 359 359 0 1 0 358 355 353 352 351 352 353 354 354 351 347 345 343 342 339 338 337 337 337 336 334 330 327 324 320 315 310 306 302 298 294 289 285 282 279 277 276 273 271 268 265 262 260 258 256 254 252 251 251 250 249 248 247 247 246 245 243 242 242 242 242 242 242 242 242 242 242 242 241 240 239 239 239 239 239 239 238 237 236
360 359 359 359 360 0 359 357 354 351 350 351 351 352 353 354 351 346 343 342 340 337 336 335 336 336 334 331 327 324 321 317 312 307 304 300 297 293 289 285 282 280 278 276 274 271 267 264 262 260 259 257 255 254 252 251 251 250 249 248 247 246 244 243 243 242 242 242 242 242 242 242 242 242 241 241 240 239 238 238 238 238 238 237 237
359 359 358 358 358 359 359 358 356 353 350 350 350 351 352 353 353 350 346 342 340 338 335 334 333 332 332 330 327 324 321 318 315 311 308 304 299 295 290 286 284 282 280 278 276 274 271 267 264 261 259 259 258 256 255 254 253 252 250 249 248 247 245 244 243 243 244 244 243 243 242 242 241 241 240 240 240 240 239 238 238 237 237 237 237
358 359 358 357 357 358 358 358 357 355 352 349 349 349 350 351 352 352 349 344 341 338 335 333 330 329 328 328 327 325 322 320 318 316 313 309 305 300 294 288 284 282 282 281 280 278 275 272 269 264 261 259 258 258 257 256 255 253 252 250 248 247 246 245 245 245 245 245 245 244 243 242 241 240 240 240 239 239 239 238 238 238 237 236 236
358 358 358 357 356 357 358 358 357 356 354 351 349 348 349 349 350 352 351 347 343 340 337 333 330 329 327 327 326 326 325 323 321 319 316 313 309 306 302 297 291 286 284 283 282 281 280 277 274 271 266 262 259 258 257 257 256 255 254 252 250 248 247 247 246 247 247 247 247 246 245 244 243 241 241 240 240 239 238 238 238 238 238 237 237
357 357 357 357 356 356 357 358 357 356 355 353 351 348 348 348 349 350 351 349 346 343 340 336 333 331 329 327 326 325 326 326 324 321 318 315 311 308 305 302 298 294 291 288 286 284 282 280 278 276 273 269 265 261 258 256 256 256 255 254 252 250 249 248 248 248 248 249 249 248 247 246 245 243 241 241 240 240 239 238 238 238 238 238 238
357 356 356 356 355 355 355 357 357 357 355 354 352 350 349 348 347 348 349 350 348 345 342 340 336 333 330 328 326 325 325 325 325 323 320 316 312 309 306 303 301 298 296 293 290 287 285 282 280 278 276 273 270 267 263 260 257 256 255 255 254 252 251 250 249 249 248 249 249 249 249 247 246 244 242 242 241 241 240 239 239 238 238 238 238
356 356 355 355 355 355 354 355 356 357 356 354 353 352 350 349 348 347 348 349 348 346 344 341 339 335 331 328 326 325 324 323 323 322 321 318 315 311 307 303 300 298 296 294 292 289 286 284 281 279 277 275 273 271 268 265 262 259 257 255 254 253 253 252 251 250 249 249 249 249 249 249 247 245 244 243 243 242 241 240 239 239 238 238 238
355 355 354 354 355 355 354 354 355 356 356 355 353 352 351 350 349 348 347 347 348 347 345 342 340 337 332 328 326 324 322 321 320 319 320 319 316 312 309 305 302 298 295 293 292 290 287 284 282 280 278 276 275 273 271 269 267 264 262 258 256 254 253 252 252 252 251 250 250 250 250 250 249 247 246 245 244 243 242 241 240 239 239 239 239
354 354 354 354 354 355 355 354 354 354 355 354 353 352 351 351 350 349 348 347 347 346 345 343 341 338 334 330 326 323 322 320 318 316 316 316 314 312 310 308 305 302 297 294 292 290 289 286 284 281 279 277 276 274 272 270 269 267 265 263 261 257 255 253 252 252 252 251 252 251 251 250 249 248 247 246 245 245 244 243 242 241 240 240 240
353 354 354 353 354 355 355 354 353 353 354 354 353 352 351 351 351 350 349 348 347 346 345 344 342 340 336 332 327 324 321 319 317 315 314 313 312 310 310 308 307 304 301 296 293 290 288 287 286 283 280 278 276 274 272 271 270 269 267 266 264 262 260 257 254 252 252 252 252 252 251 251 249 248 247 247 246 246 245 244 243 242 241 240 241
352 353 353 353 353 354 355 354 353 353 353 353 353 352 351 351 351 350 349 348 347 347 345 344 343 341 338 333 329 325 322 318 316 315 313 312 310 309 308 308 307 306 303 299 295 291 288 286 285 283 281 279 277 274 273 271 270 269 268 267 266 265 263 261 258 255 253 253 252 252 252 252 251 250 249 247 246 246 245 245 244 243 242 241 240
351 352 353 353 353 353 354 354 354 353 352 352 352 352 351 350 350 350 349 348 347 346 346 345 344 342 339 335 330 326 323 319 315 313 313 311 310 308 307 307 307 306 304 302 298 295 290 286 283 281 280 279 276 275 273 271 269 268 267 266 266 266 265 263 261 259 256 254 253 252 252 252 251 251 250 249 248 247 246 245 245 244 243 242 241
350 351 352 352 352 352 353 354 354 353 352 351 351 351 350 349 349 349 349 348 346 345 345 345 344 343 340 337 333 329 325 321 316 313 312 311 309 308 306 305 305 304 304 303 301 299 294 289 285 281 279 278 277 275 273 272 270 268 267 266 265 264 264 264 263 262 259 257 254 253 252 252 251 250 250 250 250 249 248 246 245 244 243 243 242
348 349 350 351 351 351 351 352 353 353 352 351 351 350 350 349 348 348 348 348 347 345 344 344 344 343 341 339 336 332 329 324 319 315 312 310 309 307 306 305 303 302 302 302 302 300 298 294 290 285 280 277 276 275 273 272 270 269 268 266 265 264 263 262 261 261 260 259 257 256 254 252 251 250 250 249 249 249 248 247 246 245 244 243 242
347 348 349 350 350 350 350 351 352 352 352 351 350 350 350 349 348 347 347 347 347 345 343 343 343 343 342 340 337 334 331 328 323 318 314 311 308 307 305 304 303 302 301 300 300 300 299 297 294 290 285 280 276 274 273 271 270 268 267 266 265 265 264 263 262 260 258 257 256 255 254 253 252 251 250 249 248 247 247 247 246 246 245 244 243
345 346 347 348 349 349 349 350 351 351 351 351 350 350 349 349 348 347 346 346 346 345 344 342 342 342 341 340 338 336 333 329 326 322 318 313 310 307 304 303 302 301 301 300 299 299 298 298 296 294 290 286 281 277 274 272 270 269 267 265 264 263 263 263 263 262 260 259 257 256 255 254 253 252 251 250 248 247 245 245 245 245 245 245 244
344 345 346 346 347 348 348 349 350 350 351 351 350 349 349 348 348 347 345 345 344 345 344 342 341 340 340 340 338 336 334 330 327 324 320 316 312 309 305 303 300 299 299 298 297 297 296 296 296 294 292 290 286 282 278 275 272 271 269 267 265 263 262 261 261 260 260 260 259 259 258 257 255 253 251 250 249 248 246 244 244 243 244 244 244
342 343 344 345 346 347 347 348 348 349 350 350 350 349 348 348 347 347 346 344 343 343 343 342 341 339 339 339 338 336 334 331 328 325 322 318 314 310 307 304 300 298 296 295 294 294 293 293 292 292 292 290 287 284 281 277 275 272 271 269 267 265 263 261 260 259 258 257 257 257 257 257 257 255 253 251 249 248 247 246 244 243 243 243 243
341 342 342 343 344 345 346 347 347 348 349 350 349 349 348 348 347 347 346 344 343 342 342 341 340 339 338 337 337 336 334 331 328 325 322 319 315 312 308 305 302 298 295 293 292 291 290 289 289 289 289 289 288 286 282 279 276 273 271 270 268 267 265 263 261 259 258 257 255 254 253 254 255 255 255 253 251 249 248 246 245 244 243 243 242
339 340 341 342 343 344 345 346 346 347 348 348 348 348 348 347 347 346 346 345 343 342 341 340 339 338 337 335 335 335 333 331 329 325 322 319 316 312 309 306 303 300 296 293 290 289 288 287 287 286 286 286 287 286 285 282 279 275 271 269 268 267 266 265 263 261 259 258 256 255 253 251 251 252 252 252 252 250 249 248 246 245 244 243 242
338 339 340 340 341 342 343 344 345 345 346 347 348 347 347 346 346 345 345 344 343 341 340 339 338 337 335 334 333 333 332 331 329 326 322 318 315 312 309 306 304 301 298 295 292 289 286 285 284 284 283 282 282 283 283 283 281 278 274 271 267 265 264 264 263 263 262 259 258 256 255 253 251 250 249 250 249 249 248 247 247 246 245 244 243
336 338 339 339 340 341 342 343 344 344 345 346 346 346 346 346 345 344 344 343 342 341 340 338 337 336 334 333 332 331 330 330 328 326 323 319 315 312 309 306 303 301 298 296 294 290 287 284 283 282 281 280 279 278 278 279 279 279 277 274 271 267 264 262 261 261 261 260 258 257 256 255 253 251 250 249 249 248 248 247 246 245 244 243 243
335 337 337 338 339 340 341 342 343 343 344 345 345 345 345 345 344 343 343 343 342 341 340 338 336 335 333 332 330 329 328 328 327 326 323 320 316 312 308 305 303 300 298 296 293 291 288 285 283 281 279 279 278 277 275 274 274 275 275 275 273 270 267 264 261 259 258 258 257 256 256 255 254 253 251 250 248 248 248 247 246 245 243 242 241
335 335 336 337 338 338 339 340 341 342 342 343 344 344 344 344 344 343 342 342 341 340 339 337 336 334 332 331 329 328 327 326 325 325 323 320 317 313 309 305 302 299 297 295 293 291 288 286 284 281 278 277 276 276 274 273 271 270 270 271 271 271 269 267 264 261 258 256 255 254 253 252 252 251 251 249 247 246 245 245 246 245 245 243 242
333 334 335 336 336 337 338 339 340 340 341 342 342 343 343 343 343 342 342 341 341 340 339 337 335 334 332 330 328 326 325 324 324 323 322 320 318 314 310 306 302 299 296 294 292 290 288 286 284 281 279 277 275 274 273 272 271 269 268 267 267 267 268 267 266 264 261 258 256 254 252 250 249 249 249 248 247 246 244 243 242 242 243 243 242
333 333 334 334 335 336 336 337 338 339 340 340 341 342 342 342 342 341 341 340 340 339 338 337 336 334 331 329 328 326 324 323 322 322 321 320 318 315 311 307 303 299 296 294 292 290 288 286 284 282 280 277 274 273 272 271 270 269 268 266 265 264 264 264 264 263 262 260 258 256 254 252 250 249 248 247 247 246 245 244 243 242 241 241 240